STARLINK-35335, 66180

Orbit data source: Space-Track

STARLINK-35335, 66180 is a payload satellite owned by SpaceX/Seattle (US) in LEO that was launched on Sun, 26 Oct 2025 UTC via an FALCON 9 launch vehicle from the Air Force Eastern Test Range (AFETR). Payload-class satellites include a variety of spacecraft equipped with specific instruments for various scientific and technological missions. These include communications satellites like Starlink; space stations such as the ISS; scientific satellites like the Hubble; Earth observation satellites from companies like Planet Labs, Umbra, and HawkEye 360; GPS; miniature CubeSats for education and research; and military/defense satellites.

Loading next visibility...
Identifier
66180, 2025-243D
Orbit
LEO
Country
Flag of USUS
Related business
Manufacturer
SpaceX/Seattle
Mission
Operational Commercial Communications
Bus & Motor
STARLINK V2MO, Unknown motor
Mass
575 kg wet, ~530 kg dry
Launch date (UTC)
2025-10-26 (4 months ago)
Launch vehicle
FALCON 9
Launch site
Air Force Eastern Test Range (AFETR)
Object type
Payload
Rocket body
Debris
Shape & HBR
Box + 2 Pan, 17.7 m
Radar Cross Section
36.964 m²

Expand to show TLE details & history
Last TLE update: 9 hours ago

TLE from 9 hours ago
0 STARLINK-35335
1 66180U 25243D   26061.78163931  .00030464  00000-0  10360-2 0  9999
2 66180  53.1576 277.5162 0001486  81.7525 278.3644 15.30213569 19590
Epoch: 2026-03-02T18:45Z
TLE epoch observation values (Epoch: 2026-03-02T18:45:33.636Z)
Latitude
-0.00004°
Longitude
-164.4441°
Altitude
475.926 km
Speed
7.629 km/s
True Right ascension
18h 30m 03s
True Declination
0° 00' 00"
Sunlit
Object was in daylight at epoch
Visualization orbit readout
Latitude
Unknown
Longitude
Unknown
Altitude
Unknown
Speed
Unknown
Apparent Right ascension
Unknown
Apparent Declination
Unknown
Sunlit
N/A
Visualization observer readout
Local Sidereal Time
07:12:25
Azimuth
Unknown
Elevation
Unknown
Doppler factor
Unknown
Orbital elements
Apogee altitude
476.45 km
Perigee altitude
474.413 km
Semi-major axis
6,853.568 km
Eccentricity
0.00015
Inclination
53.1576°
RAAN
277.5162°
Arg. of periapsis
81.7525°
True anomaly
278.34755°
Mean anomaly
278.3644°
Eccentric anomaly
278.35598°
Mean motion
3.82532 °/min
Orbital period
94.11 mins
BSTAR
0.001036
Loading maneuver chart data...
Computing Atmospheric mass density...
Loading historical data...
Loading historical data...
Loading historical data...
Loading historical data...
Loading historical data...
Loading historical data...
Loading historical data...

Documentation

Showing up to 5 results
|